EHI
27 27 29 30 27 24 23 22 22 24 25 24 23 22 22 23 24 23 22 21 18 14 12 11 8 6 5 5 5 5 6 8 8 7 6 7 7 6 4 3 3 1 0
25 27 29 29 27 25 24 22 22 24 24 24 24 23 23 23 23 23 21 20 17 13 11 11 10 7 5 5 5 5 5 7 8 6 5 6 7 6 4 2 1 0 0
23 24 27 28 27 27 25 22 21 21 21 22 23 23 22 20 19 19 18 17 13 10 10 11 11 10 7 6 6 5 5 5 7 7 5 5 6 5 3 1 0 0 0
19 20 23 25 26 25 24 21 18 16 16 18 20 21 19 15 12 12 13 12 9 8 9 10 10 10 8 6 6 7 7 7 7 6 5 5 6 5 3 1 1 1 1
16 16 18 21 22 22 21 19 15 12 12 14 15 15 13 9 6 8 8 8 7 7 8 9 9 7 5 4 5 6 8 9 8 5 3 4 5 5 4 2 1 0 0
12 12 14 16 19 20 19 17 14 11 11 12 10 10 9 6 3 4 5 6 6 7 7 7 7 5 4 4 4 3 5 7 7 4 3 2 3 4 4 3 1 0 0
9 9 10 13 16 18 18 17 15 13 13 12 9 8 9 6 3 2 2 5 8 9 8 8 6 5 4 6 5 3 3 3 2 3 3 3 3 3 4 3 1 0 1
9 8 9 11 14 15 16 16 16 15 15 12 9 9 9 6 3 1 2 5 8 9 9 8 7 6 5 6 7 7 6 4 1 1 2 3 2 3 3 2 1 0 1
9 8 8 10 12 13 14 16 16 15 13 11 9 10 10 7 4 2 2 5 7 8 8 7 7 7 6 6 7 9 10 8 4 2 1 1 1 1 1 1 0 0 1
7 8 8 8 10 12 13 14 15 14 11 9 9 9 9 7 3 1 2 5 7 8 8 8 6 5 5 4 6 9 10 9 8 5 2 0 0 0 0 0 0 0 0
6 7 7 7 8 10 11 13 14 13 10 8 9 10 9 7 3 1 1 3 7 9 10 9 6 3 2 2 5 7 7 8 8 7 4 2 2 1 0 0 1 1 0
4 6 6 7 7 8 10 11 12 11 9 8 9 10 10 7 4 2 1 1 4 7 9 8 5 2 1 1 2 4 5 5 7 7 5 5 5 3 1 2 3 2 1
4 6 7 7 8 9 10 10 10 9 8 8 8 9 8 7 5 3 1 0 1 4 6 4 2 1 0 0 1 1 2 4 5 5 4 5 4 3 3 5 6 5 3
4 6 8 8 8 10 10 9 8 7 6 7 8 8 7 6 6 5 2 1 1 2 2 1 0 0 0 1 1 0 1 3 3 2 3 4 3 2 4 6 6 5 3
3 4 6 6 7 8 8 7 6 5 4 5 6 6 6 6 6 5 3 3 3 2 1 1 2 2 2 3 2 1 1 3 3 2 3 5 4 3 2 4 4 3 1
3 3 4 4 5 6 7 5 4 2 2 1 2 3 3 3 3 3 3 2 2 1 3 4 5 5 5 5 4 2 2 4 5 5 5 6 5 3 2 2 2 1 1
4 4 4 4 4 5 6 5 3 2 1 1 0 1 1 1 1 1 1 1 0 1 3 6 6 6 6 6 5 3 3 5 7 7 6 6 6 4 1 1 1 1 2
5 5 5 5 4 4 5 4 3 2 2 2 1 0 0 0 0 0 0 1 1 2 4 6 6 6 6 5 4 3 4 5 6 5 4 5 5 3 1 0 0 1 1
6 5 4 5 5 4 4 3 3 3 2 3 2 0 0 0 0 0 1 2 3 4 5 6 6 6 5 4 3 3 4 5 5 4 3 4 4 3 2 1 0 0 0
4 3 3 4 4 3 3 3 3 3 2 3 2 0 0 1 1 0 2 4 5 5 5 6 6 5 4 3 3 4 4 5 5 4 3 3 3 3 2 1 0 0 0
2 2 2 3 3 3 3 3 3 3 3 2 1 0 1 2 2 2 2 4 4 4 5 5 4 3 3 2 3 3 4 4 5 5 3 2 1 1 1 1 0 0 0
1 2 3 3 3 3 3 3 3 3 2 1 1 0 1 2 2 3 3 3 3 3 3 2 1 1 1 1 1 2 3 3 4 4 2 1 0 0 0 0 0 0 0
1 2 3 3 3 3 3 3 3 3 1 0 0 0 0 1 1 2 3 3 2 1 1 0 0 0 0 0 0 1 1 2 2 2 1 0 0 0 0 0 0 0 0
0 1 2 3 3 3 3 3 3 2 1 0 0 0 0 0 0 1 2 2 1 0 0 0 0 0 0 0 0 0 0 1 1 1 0 0 0 0 0 0 0 0 0
0 0 1 3 3 3 3 3 2 1 0 0 0 0 0 0 0 1 1 1 0 0 0 0 0 0 0 0 0 0 0 0 0 0 0 0 0 0 0 0 0 0 0
0 0 1 4 5 4 4 3 1 0 0 0 0 0 0 0 0 0 1 0 0 0 0 0 0 0 0 0 0 0 0 0 0 0 0 0 0 0 0 0 0 0 0
Wind_Speed
1 1 0 1 1 1 1 0 0 0 0 1 1 2 2 2 2 2 3 2 2 2 2 2 2 3 2 2 1 1 2 1 2 2 1 0 0 0 0 1 2 2 3
1 2 1 1 1 1 1 1 1 1 1 1 1 2 3 2 2 2 3 3 3 3 2 2 2 2 2 2 2 2 2 1 1 2 1 1 1 1 1 2 2 2 2
1 1 1 0 1 0 0 1 1 0 0 1 1 2 2 2 2 3 3 3 3 3 2 2 2 2 2 2 2 2 2 2 1 1 2 1 1 0 1 2 2 1 2
1 1 1 0 1 1 1 1 1 1 1 1 1 2 2 2 3 2 3 3 3 3 2 2 2 2 2 2 2 2 2 2 1 1 2 1 1 1 0 1 1 1 1
1 0 0 0 0 1 1 1 1 1 2 1 1 2 2 2 1 1 2 3 3 3 2 2 2 2 2 2 3 1 2 2 1 2 2 1 1 0 1 1 1 1 1
2 2 1 0 1 1 1 1 1 1 1 1 2 2 2 1 1 1 2 3 3 3 3 3 3 3 3 3 4 4 3 3 2 2 2 2 2 2 1 2 1 1 1
1 2 1 1 1 1 2 2 2 2 2 2 2 2 1 0 0 1 2 3 4 3 3 3 5 4 2 2 3 4 4 5 5 3 3 3 3 2 1 2 2 2 2
2 2 2 2 2 1 2 2 2 2 3 3 3 3 2 2 2 2 3 4 4 3 4 4 3 3 3 2 3 3 3 4 5 5 4 4 3 2 2 2 3 2 2
2 2 2 2 2 2 2 2 2 3 3 3 3 3 3 2 4 4 3 3 3 4 4 3 3 3 2 3 3 4 3 3 3 3 4 4 5 4 2 1 2 1 2
3 3 3 3 3 3 3 3 3 3 4 4 4 3 3 3 4 5 4 3 4 3 2 2 2 3 3 3 3 3 4 3 2 2 3 4 4 4 5 3 2 2 1
4 3 3 3 3 3 3 3 3 4 4 4 4 4 4 4 5 6 6 3 4 4 3 2 1 2 3 4 4 3 4 4 3 3 3 2 3 2 3 4 3 3 2
4 4 4 3 5 4 3 3 4 4 5 4 4 4 3 3 4 6 7 7 5 4 4 2 1 1 2 3 3 4 5 4 3 3 2 2 2 2 2 3 3 3 3
4 4 4 4 3 3 4 4 3 4 4 4 3 3 3 2 3 5 7 7 7 4 3 3 3 4 4 4 5 6 4 3 3 2 2 2 2 2 2 2 2 3 3
5 5 4 4 4 3 3 3 3 3 4 3 3 3 3 1 1 1 2 3 4 4 3 3 4 5 5 4 4 3 3 3 2 2 2 2 2 1 2 1 2 2 1
5 5 5 5 4 3 3 3 3 3 3 3 3 3 3 2 1 0 1 2 2 2 2 2 3 3 3 3 3 3 3 3 3 2 2 2 2 2 1 1 1 2 2
4 5 4 4 4 3 3 3 2 3 3 4 4 3 2 2 2 1 2 3 3 1 1 3 3 3 4 3 3 3 3 3 3 3 2 2 2 1 1 1 1 1 2
4 5 5 4 4 3 3 3 3 2 3 4 4 4 4 4 3 2 3 3 3 2 3 4 4 4 4 4 3 3 3 3 3 3 2 2 2 1 1 1 1 1 1
5 5 5 4 4 3 3 4 3 3 2 2 3 5 6 5 5 4 3 1 3 4 4 5 4 4 4 4 3 3 3 2 2 2 2 2 2 2 1 1 1 1 1
5 4 3 4 4 4 3 3 3 3 2 2 1 2 4 4 4 5 4 3 4 4 4 4 4 4 4 4 3 3 2 2 2 2 2 2 2 2 2 2 1 2 1
3 4 4 4 4 4 3 3 3 3 3 2 2 1 1 2 2 3 4 4 4 4 4 4 3 3 2 2 2 2 2 2 2 2 2 2 2 2 2 2 2 1 1
4 3 4 5 4 4 3 3 3 3 3 2 2 1 2 3 3 3 3 3 3 3 3 3 2 2 1 1 1 2 2 2 2 2 1 1 1 1 1 1 1 1 1
4 3 3 4 3 3 3 3 3 2 2 3 2 0 2 3 2 2 2 2 2 2 2 2 2 1 1 1 1 1 1 1 1 1 1 1 1 1 1 1 1 1 1
5 5 4 3 3 3 3 3 3 3 3 3 1 1 1 2 2 2 2 1 1 1 1 1 1 1 1 1 1 1 1 1 1 0 0 1 1 1 0 0 0 1 1
5 4 4 4 3 3 3 3 3 3 2 1 1 1 1 1 1 1 1 1 1 1 0 0 1 1 2 2 2 2 2 2 2 1 1 0 0 0 0 1 1 1 0
4 4 4 4 3 2 3 3 3 3 2 1 0 1 1 1 1 1 0 1 1 1 0 0 1 1 2 3 2 2 3 4 3 2 1 1 1 0 0 0 1 1 0
4 4 3 3 2 2 2 3 2 2 1 1 1 0 1 1 1 1 1 1 0 1 1 0 1 1 1 1 1 2 2 2 2 1 1 1 1 0 0 0 1 1 1
Wind_Direction
154 198 170 162 194 225 241 309 341 240 211 183 192 214 219 215 222 232 245 241 241 248 258 246 246 282 298 298 288 277 278 271 254 284 284 138 297 356 186 230 180 181 188
175 170 178 195 214 213 209 219 222 225 235 226 221 230 231 221 227 234 248 252 247 249 255 267 262 262 273 286 294 284 281 279 245 261 267 232 238 195 208 232 216 212 186
158 164 152 214 226 207 236 219 204 194 270 251 233 244 242 237 243 247 247 260 259 256 252 257 262 266 268 269 270 276 272 284 254 251 260 248 243 272 243 256 261 236 229
54 98 101 157 246 226 228 220 215 230 245 253 251 251 247 242 246 255 263 264 266 262 252 252 259 264 266 277 271 278 283 283 274 262 255 245 227 262 286 282 295 279 278
12 35 124 183 293 286 270 245 229 248 254 255 273 271 265 247 264 293 275 260 265 270 272 268 265 263 258 264 276 280 287 288 280 264 260 255 245 247 256 258 271 288 287
350 329 339 252 232 277 275 256 238 243 256 243 251 263 272 286 35 20 311 285 259 251 254 258 260 239 226 248 261 261 249 255 263 267 271 269 260 248 239 251 262 261 268
318 306 300 276 263 256 269 264 251 250 259 259 259 260 248 159 216 293 295 287 272 260 257 258 266 261 249 260 262 243 242 242 232 240 260 265 263 253 240 258 264 272 266
319 315 302 284 273 269 263 260 255 249 251 251 248 249 236 222 211 239 274 267 270 264 257 247 254 269 276 284 279 267 250 248 234 227 245 258 263 267 254 242 250 261 255
304 307 320 317 307 293 278 275 265 259 257 252 247 243 240 225 216 224 248 268 265 263 260 257 250 242 260 274 274 280 273 269 263 238 234 245 252 259 259 253 246 241 263
313 317 317 310 301 292 284 276 267 257 256 260 247 238 235 229 210 215 223 261 270 267 251 240 248 231 248 246 255 273 276 280 294 284 251 249 243 232 222 216 230 230 249
312 307 309 307 293 282 278 275 272 264 258 260 261 247 232 228 200 210 215 242 268 270 262 242 216 211 232 239 251 260 266 277 272 265 249 236 232 224 211 207 218 217 228
302 299 298 295 289 286 281 277 273 270 264 255 260 257 237 221 207 214 217 229 257 274 275 273 242 246 262 254 250 253 271 272 261 257 248 230 227 223 217 207 205 208 214
305 301 294 289 283 284 279 270 270 267 265 267 269 271 267 239 205 210 217 226 238 251 279 288 275 263 271 264 244 240 247 244 239 241 244 241 230 222 211 207 202 204 216
298 293 287 282 278 277 273 271 271 271 268 272 278 282 289 294 279 233 228 235 238 242 261 274 262 256 262 260 259 234 225 232 230 240 249 250 243 219 211 211 207 201 212
291 289 289 280 276 271 262 271 265 261 254 262 282 289 290 290 288 289 285 278 266 269 268 255 258 251 245 239 234 227 221 222 227 239 255 261 243 220 215 220 213 209 217
291 293 290 287 282 269 258 261 263 243 229 230 241 254 266 265 248 251 269 273 275 251 232 257 253 247 243 241 237 224 215 219 222 219 236 249 238 222 213 217 211 211 233
297 294 285 281 280 272 268 263 262 257 249 247 244 235 236 252 254 255 268 283 270 213 234 248 248 244 246 245 241 237 229 218 214 217 224 235 236 231 215 215 223 223 222
292 288 287 283 280 269 267 270 263 253 251 251 241 232 234 233 236 239 240 259 261 228 228 235 240 239 237 243 245 237 230 217 205 214 223 229 231 228 218 214 218 232 230
295 295 296 293 288 283 277 276 277 274 261 252 254 220 217 218 228 239 224 236 251 249 243 241 240 241 236 231 232 230 214 209 214 219 225 227 225 223 228 229 223 228 226
284 290 293 292 287 284 279 281 283 280 277 270 266 249 177 201 229 234 224 228 244 251 250 254 250 245 243 238 227 218 214 207 206 214 223 224 217 215 224 231 228 215 222
285 274 263 274 283 289 292 286 280 275 281 282 285 205 188 228 243 244 239 229 243 256 262 268 267 254 251 252 239 232 232 216 198 208 207 213 249 244 234 237 228 213 230
284 275 266 271 282 287 294 288 282 282 285 292 299 276 211 242 254 252 245 231 235 254 265 280 292 298 326 330 333 306 278 243 201 183 184 196 224 256 235 211 181 186 209
284 285 287 287 282 277 271 278 283 281 282 276 261 237 228 254 261 259 258 246 240 250 257 282 298 320 36 34 40 66 5 342 342 51 204 212 219 228 209 143 171 220 223
280 278 282 287 288 274 274 282 286 290 293 309 343 320 270 264 270 266 274 276 259 274 256 30 36 33 57 50 50 52 37 23 14 26 14 332 279 255 185 161 181 225 220
272 270 273 276 279 282 282 283 287 290 294 315 325 298 294 285 291 284 263 263 243 252 303 323 79 60 61 59 47 59 68 59 43 8 351 334 337 358 332 233 202 226 251
276 271 274 278 280 279 282 285 286 305 324 316 304 289 284 291 301 354 1 14 342 321 296 281 84 66 87 100 81 100 105 93 72 26 323 304 317 343 324 256 239 237 220